Regional Weather Roundup
Issued by NWS

Home | Current Version | Previous Version | Text Only | Print | Product List | Glossary Off
Versions: 1 2 3 4 5 6 7 8 9 10 11 12 13 14 15 16 17 18 19 20 21 22 23 24 25 26 27 28 29 30 31 32 33 34 35 36 37 38 39 40 41 42 43 44 45 46 47 48 49 50

000
ASUS45 KABQ 251410
RWRNM
WEATHER ROUNDUP FOR NEW MEXICO
NATIONAL WEATHER SERVICE ALBUQUERQUE NM
700 AM MST SUN JAN 25 2015

NOTE: "FAIR" MEANS FEW OR NO CLOUDS BELOW 12,000 FEET AGL WITH NO
       SIGNIFICANT WEATHER OR OBSTRUCTIONS TO VISION.

      THIS PRODUCT IS RELEASED AS TWO VERSIONS.  ONE VERSION NEAR
      THE TOP OF THE HOUR CONTAINING PRELIMINARY DATA FROM ALBUQUERQUE
      AND OTHER STATIONS.  A FINAL VERSION WITH ADDITIONAL DATA IS
      ISSUED ABOUT 10 MINUTES AFTER THE HOUR.

NMZ501-503-504-510>518-251500-
NORTHWEST PLATEAU/NORTHCENTRAL MOUNTAINS

CITY           SKY/WX    TMP DP  RH WIND       PRES   REMARKS
FARMINGTON     CLEAR     20  15  81 E8        30.32R WCI  10
LOS ALAMOS     PTCLDY    38  16  39 N12       30.28R WCI  31
SANTA FE       PTCLDY    23  16  74 NW8       30.27R WCI  14
TAOS           PTCLDY    12   7  79 CALM      30.31R
ANGEL FIRE     FAIR       3   0  86 SE3       30.28R

$$
NMZ402-403-502-505>509-251500-
WESTCENTRAL MOUNTAINS/SOUTHWEST MOUNTAINS

CITY           SKY/WX    TMP DP  RH WIND       PRES   REMARKS
GALLUP         CLEAR     19  14  81 CALM      30.32R
GRANTS         CLEAR     19  15  87 NW5       30.33R WCI  12
SILVER CITY    MOCLDY    32  18  55 N10       30.24R WCI  24

$$
NMZ407-409-411-412-251500-
SOUTHERN DESERTS

CITY           SKY/WX    TMP DP  RH WIND       PRES   REMARKS
LORDSBURG      FAIR      23  21  93 CALM      30.23R
DEMING         PTCLDY    25  20  81 N5        30.24R WCI  19
LAS CRUCES     PTCLDY    32  24  71 N7        30.24R WCI  26
HOLLOMAN AFB   MOCLDY    26  22  88 SE5       30.23R WCI  20
ALAMOGORDO     MOCLDY    27  23  86 S7        30.23S WCI  19
T OR C         MOCLDY    33  22  63 N5        30.24R WCI  29

$$
NMZ519>523-251500-
CENTRAL VALLEYS/CENTRAL HIGHLANDS

CITY           SKY/WX    TMP DP  RH WIND       PRES   REMARKS
ALBUQUERQUE    PTCLDY    27  18  69 E3        30.29R
DOUBLE EAGLE   CLEAR     43  16  33 CALM      30.29R
MORIARTY ARPT  FAIR      19  16  86 CALM      30.28R
CLINES CORNERS PTCLDY    23  13  65 NW13      30.23R WCI  11
BELEN          FAIR      24  20  87 NW3       30.29R
SOCORRO        FAIR      28  23  80 N9        30.27R WCI  19

$$
NMZ524>526-539-540-251500-
SOUTHCENTRAL MOUNTAINS

CITY           SKY/WX    TMP DP  RH WIND       PRES   REMARKS
RUIDOSO        CLEAR     28  10  47 S7        30.29R WCI  21

$$
NMZ527>531-251500-
NORTHEAST HIGHLANDS/NORTHEAST PLAINS

CITY           SKY/WX    TMP DP  RH WIND       PRES   REMARKS
LAS VEGAS      PTCLDY    29  13  51 VRB5      30.23R WCI  24
RATON          PTCLDY    25  19  78 N9        30.21R WCI  15
CLAYTON        PTCLDY    35  25  66 NW15      30.20R WCI  25

$$
NMZ532>537-251500-
EASTCENTRAL PLAINS

CITY           SKY/WX    TMP DP  RH WIND       PRES   REMARKS
TUCUMCARI      PTCLDY    24  21  88 W5        30.22R WCI  18
CANNON AFB     PTCLDY    32  25  76 N10       30.20R WCI  23
CLOVIS AIRPORT PTCLDY    30  25  80 N9        30.20R WCI  22

$$
NMZ028-029-538-251500-
SOUTHEAST PLAINS

CITY           SKY/WX    TMP DP  RH WIND       PRES   REMARKS
ROSWELL        PTCLDY    30  24  78 N7        30.25R WCI  23
ARTESIA        MOCLDY    32  28  86 NW12      30.26R WCI  23
CARLSBAD       PTCLDY    37  27  67 N13       30.23R WCI  29
HOBBS          CLEAR     32  28  86 N10       30.22R WCI  24


$$



USA.gov is the U.S. government's official web portal to all federal, state and local government web resources and services.